Regional Weather Roundup
Issued by NWS

Home | Current Version | Previous Version | Graphics & Text | Print | Product List | Glossary On
Versions: 1 2 3 4 5 6 7 8 9 10 11 12 13 14 15 16 17 18 19 20 21 22 23 24 25 26
000
ASUS45 KPSR 230110
RWRAZ

ARIZONA HOURLY REGIONAL WEATHER ROUNDUP
NATIONAL WEATHER SERVICE PHOENIX AZ
600 PM MST SAT JUL 22 2017

NOTE: FAIR INDICATES FEW OR NO CLOUDS BELOW 12,000 FEET WITH NO
SIGNIFICANT WEATHER AND/OR OBSTRUCTIONS TO VISIBILITY.

AZZ001>003-036-230200-
NORTHWEST ARIZONA

CITY           SKY/WX    TMP DP  RH WIND       PRES   REMARKS
BULLHEAD CITY  SUNNY    113  50  12 S8        29.65F HX 110
KINGMAN        MOSUNNY   99  54  22 SW12      29.92F
$$

AZZ004>008-015-016-018-230200-
NORTH CENTRAL ARIZONA

CITY           SKY/WX    TMP DP  RH WIND       PRES   REMARKS
GRAND CANYON   MOSUNNY   85  39  19 NE12      30.20F
WILLIAMS       CLOUDY    79  50  36 E6G12     30.21R
PRESCOTT       CLOUDY    74  65  73 SW12      30.09S
FLAGSTAFF      PTSUNNY   78  49  35 NE7       30.24R
PAYSON         CLOUDY    75  63  64 SW3       30.14S
PAGE           MOSUNNY   95  46  18 E14       29.99R
$$

AZZ009>014-017-230200-
NORTHEAST ARIZONA

CITY           SKY/WX    TMP DP  RH WIND       PRES   REMARKS
WINSLOW        MOSUNNY   90  51  26 CALM      30.06R
SAINT JOHNS    CLOUDY    70  59  68 S7        30.14F
WINDOW ROCK    PTSUNNY   74  58  57 CALM      30.20F
SHOW LOW       LGT RAIN  63  57  82 E5        30.22S
$$

AZZ540-542>544-546-548-230200-
GREATER PHOENIX AREA

CITY           SKY/WX    TMP DP  RH WIND       PRES   REMARKS
PHOENIX        PTSUNNY   95  65  37 NE7       29.76S
BUCKEYE        CLOUDY    81  72  74 NE22G44   29.78R VSB 1
GLENDALE       PTSUNNY   93  66  40 W22G29    29.80R
DEER VALLEY    PTSUNNY   94  61  33 NW12      29.80F
SCOTTSDALE     CLOUDY    91  68  46 NE6       29.82R
MESA-FALCON    MOSUNNY   93  64  38 N12       29.80S
MESA-GATEWAY   PTSUNNY   97  64  34 N17G23    29.80S
CHANDLER       PTSUNNY   99  63  30 N14       29.77S HX 100
$$

AZZ539-553-230200-
SOUTHWEST MARICOPA COUNTY AND PINAL COUNTY

CITY           SKY/WX    TMP DP  RH WIND       PRES   REMARKS
CASA GRANDE    PTSUNNY  102  60  25 N13       29.79S HX 103
$$

AZZ503-504-507>509-230200-
SOUTHEAST ARIZONA

CITY           SKY/WX    TMP DP  RH WIND       PRES   REMARKS
TUCSON         PTSUNNY   83  68  60 S12       29.95R
DAVIS-MONTHAN  HVY RAIN  79  63  57 S8        29.96
RYAN FIELD     MOSUNNY   84  66  54 SW18G24   29.92R
NOGALES        CLOUDY    69  68  96 CALM      30.05F
DOUGLAS        CLOUDY    77  64  64 SW5       30.06R
SAFFORD        CLOUDY    82  65  56 NW9       29.94F
$$

AZZ532-230200-
SOUTHWEST ARIZONA

CITY           SKY/WX    TMP DP  RH WIND       PRES   REMARKS
YUMA           SUNNY    105  58  21 S13       29.70S HX 105
$$

CAZ041-043-047-048-061-525>527-560>570-230200-
SOUTHERN CALIFORNIA

CITY           SKY/WX    TMP DP  RH WIND       PRES   REMARKS
DOWNTOWN L.A.  SUNNY     78  65  63 W5        29.83F
L.A. AIRPORT   MOSUNNY   73  65  75 W13       29.84F
SAN DIEGO      MOSUNNY   72  62  71 SW7       29.88F
BURBANK        SUNNY     83  61  47 S12       29.83S
ONTARIO        MOSUNNY   88  63  43 SW13      29.83S
RIVERSIDE      SUNNY     89  62  40 W13       29.83R
PALM SPRINGS   SUNNY    110  51  14 NE5       29.71S HX 107
EL CENTRO NAS  SUNNY    108  60  21 E8        29.68F HX 109
IMPERIAL       PTSUNNY  108  64  24 E14       29.66F HX 112
NEEDLES        MOSUNNY  112  50  13 SW6       29.68F HX 109
$$

NVZ020-UTZ003-230200-
SOUTHERN NEVADA-UTAH

CITY           SKY/WX    TMP DP  RH WIND       PRES   REMARKS
LAS VEGAS      MOSUNNY  107  50  15 VRB3      29.79S HX 104
SALT LAKE CITY PTSUNNY   95  45  17 N9        30.03S
$$

NMZ009-TXZ055-230200-
NEW MEXICO-WEST TEXAS

CITY           SKY/WX    TMP DP  RH WIND       PRES   REMARKS
ALBUQUERQUE    CLOUDY    86  51  29 S23       30.05R
EL PASO        CLOUDY    75  69  81 S3        30.00F
$$


........................KEY........................
SKY/WX - SKY CONDITION/WEATHER
TMP    - TEMPERATURE IN FAHRENHEIT
DP     - DEW POINT IN FAHRENHEIT
RH     - RELATIVE HUMIDITY IN PERCENT
WIND   - DIRECTION AND SPEED IN MILES PER HOUR (MPH)
VRB    - VARIABLE WIND DIRECTION
PRES   - MEAN SEA LEVEL PRESSURE IN INCHES OF MERCURY
         F - FALLING PRESSURE   R - RISING PRESSURE
         S - STEADY PRESSURE
VSB    - VISIBILITY IN MILES
HX     - HEAT INDEX IN FAHRENHEIT
WCI    - WIND CHILL INDEX IN FAHRENHEIT
TC     - TEMPERATURE IN CELSIUS WHICH IS ALSO KNOWN AS
         TEMPERATURE IN CENTIGRADE
AFB    - AIR FORCE BASE
         LUKE AFB IS LUKE AIR FORCE BASE
         DAVIS-MONTHAN IS DAVIS-MONTHAN AIR FORCE BASE
NAS    - NAVAL AIR STATION
         EL CENTRO NAS IS EL CENTRO NAVAL AIR STATION
N/A    - NOT AVAILABLE





USA.gov is the U.S. government's official web portal to all federal, state and local government web resources and services.